Location: Newark
(42.7133°N, 87.7910°W)
Time: 11:37:08
(UTC+00:00)

Vanguard 1 - Pass Details

Date: 25 September 2019
Orbit: 653 x 3830 km, 34.2° (Epoch: 17 October)

Event Time Altitude Azimuth Distance (km) Brightness Sun altitude
Rises 13:13:51 0° 283° (WNW) 7,632 14.0 15.9°
Reaches altitude 10° 13:20:31 10° 274° (W) 6,219 13.6 17.0°
Maximum altitude 13:34:16 28° 225° (SW) 3,735 12.9 19.4°
Drops below altitude 10° 13:43:17 10° 172° (S) 3,983 13.7 21.0°
Sets 13:46:28 0° 160° (SSE) 4,578 14.1 21.5°
